Великая Кема

Россия / Приморский край     45°28′32″N   137°10′22″E
темп.,
°C
ветер,
м/с
пор.,
м/с
влажн.,
%
обл.,
%
осадки,
мм/ч
давл.,
гПа
погр.,
м
7 мая, пт
пт701:00+8зюз2269100 0.0 100531
04:00+8юз3374100 0.0 100340
07:00+8юз2274100 0.0 100336
10:00+10ююз467110 0.0 1003264
13:00+9ююз5976100 0.0 1001449
16:00+10ююз577597 0.0 999314
19:00+7ююз3689100 0.0 998214
22:00+5вюв0197100 0.0 99715
8 мая, сб
сб801:00+6юв3495100 0.1 995113
04:00+5св61097100 1.1 994343
07:00+5св4694100 0.6 994283
10:00+5всв249298 1.6 996218
13:00+5юв229499 0.1 998188
16:00+6юв229172 0.1 999162
19:00+5всв239497 0.0 1000141
22:00+4св3597100 0.1 1002288
9 мая, вс
вс901:00+4св5995100 0.0 1001298
04:00+4св61294100 0.1 999427
07:00+5св81493100 0.1 997612
10:00+4св81594100 0.8 997608
13:00+5ссв71395100 11.4 996685
16:00+4ссв61294100 23.1 996756
19:00+5св5890100 0.9 997319
22:00+5ссв2390100 1.1 99957
10 мая, пн
пн1001:00+4св2395100 0.8 1001104
04:00+4всв1195100 1.3 100230
07:00+4ю1296100 0.2 1003103
10:00+5ю2295100 0.6 1004328
13:00+6ююв2291100 0.3 1005245
16:00+8ю4483100 0.3 1004268
19:00+8ссв128387 0.0 100545
22:00+5ссв229236 0.0 100927
11 мая, вт
вт1101:00+5всв2498100 0.0 1012232
04:00+5вюв0198100 0.3 101384
07:00+5ююв2297100 0.1 1015147
10:00+5юв2296100 0.3 1015207
13:00+5юв1296100 0.2 1016254
16:00+4всв2297100 0.6 1017244
19:00+4всв1296100 0.3 1019184
22:00+4всв119599 0.3 102097